Location: Grantsboro
(35.1404°N, 76.8424°W)
Time: 06:40:52
(UTC+00:00)

STARLINK-78 - Pass Details

Date: 18 January 2020
Orbit: 528 x 531 km, 53.0° (Epoch: 25 February)

Event Time Altitude Azimuth Distance (km) Brightness Sun altitude
Exits shadow 09:41:35 - 154° (SSE) 1,836 6.6 -30.9°
Reaches altitude 10° 09:42:00 10° 149° (SSE) 1,760 6.6 -30.8°
Drops below altitude 10° 09:45:27 10° 97° (E) 1,765 7.1 -30.1°
Enters shadow 10:52:17 -53° 226° (SW) 10,831 10.1 -16.7°
Maximum altitude 11:22:21 66° 317° (NW) 578 3.5 -10.8°
